Retour au catalogue

USA 125 DEB

ActifHEO
NORAD 23947·DEBRIS·🇺🇸 United States

Lancé Jul 3, 1996 depuis Cape Canaveral Space Force Station

Loading…

Prochains Passages (prochaines 24 heures)

TLE

FraisSource: Space-Track

Époque: Sep 13, 2026, 09:04 UTC

1 23947U 96038C   26256.37815272  .00000412  00000-0  12705-3 0  9992
2 23947  55.3108 163.4149 4991675 250.1168  50.9745  5.57417529145499

Suivez USA 125 DEB en temps réel avec AllMySat

Download on the App Store